This is the latest recevied weather packets stored in our database for station/object DG6YGE-6. If no packets are shown the sender has not sent any weather packets the latest 10 day(s).
| Time | Temp. | Humidity | Pressure | Rain* | Wind** | Luminosity | Snow |
|---|---|---|---|---|---|---|---|
| 1788078551 | 18.33° C | 83% | 1008.5 hPa | 0 mm | - | 109 W/m² | - |
| 1788077952 | 18.33° C | 84% | 1008.1 hPa | 0 mm | - | 149 W/m² | - |
| 1788077360 | 18.33° C | 84% | 1008 hPa | 0 mm | - | 137 W/m² | - |
| 1788076752 | 18.33° C | 83% | 1008 hPa | 0 mm | - | 102 W/m² | - |
| 1788076152 | 18.33° C | 83% | 1007.8 hPa | 0 mm | - | 139 W/m² | - |
| 1788075551 | 18.33° C | 83% | 1007.7 hPa | 0 mm | - | 103 W/m² | - |
| 1788074951 | 18.33° C | 82% | 1007.5 hPa | 0 mm | - | 107 W/m² | - |
| 1788074352 | 18.33° C | 82% | 1007.6 hPa | 0 mm | - | 119 W/m² | - |
| 1788073752 | 18.33° C | 82% | 1007.4 hPa | 0 mm | - | 188 W/m² | - |
| 1788073152 | 18.33° C | 84% | 1007.3 hPa | 0 mm | - | 126 W/m² | - |
| 1788072552 | 17.78° C | 84% | 1007.3 hPa | 0 mm | - | 117 W/m² | - |
| 1788071951 | 17.78° C | 84% | 1007.3 hPa | 0 mm | - | 83 W/m² | - |
| 1788071352 | 17.78° C | 84% | 1007.1 hPa | 0 mm | - | 75 W/m² | - |
| 1788070752 | 17.78° C | 83% | 1007 hPa | 0 mm | - | 59 W/m² | - |
| 1788070163 | 17.78° C | 83% | 1006.8 hPa | 0 mm | - | 52 W/m² | - |
| 1788069552 | 17.78° C | 83% | 1006.9 hPa | 0 mm | - | 57 W/m² | - |
| 1788068952 | 17.78° C | 83% | 1006.7 hPa | 0 mm | - | 38 W/m² | - |
| 1788068352 | 17.78° C | 84% | 1006.7 hPa | 0 mm | - | 30 W/m² | - |
| 1788067751 | 17.78° C | 84% | 1006.8 hPa | 0 mm | - | 22 W/m² | - |
| 1788067152 | 17.78° C | 85% | 1006.7 hPa | 0 mm | - | 12 W/m² | - |
| 1788066552 | 17.78° C | 85% | 1006.7 hPa | 0 mm | - | 7 W/m² | - |
| 1788065952 | 17.78° C | 86% | 1006.5 hPa | 0 mm | - | 1 W/m² | - |
| 1788065351 | 17.78° C | 86% | 1006.4 hPa | 0 mm | - | 0 W/m² | - |
| 1788064752 | 17.78° C | 86% | 1006.4 hPa | 0 mm | - | 0 W/m² | - |
| 1788064152 | 17.78° C | 86% | 1006.4 hPa | 0 mm | - | 0 W/m² | - |
* Rain latest hour (hover to see other rain measurements)
** Current wind speed in m/s (hover to see current wind gust speed)